NUSANTARA SATU (44048 NORAD) Tracking and Keplerian Element Data

This shows tracking and keplerian element data for the satellite.

Feedback or suggestion? Click here.




ElementValue
Catalog44048
NameNUSANTARA SATU
Epoch Orbit25
Epoch Day80.94563346
Epoch Year2019
RAAN281.8186
Inclination0.0476
Eccentricity0.0001615
Argument of Perigee79.0524
Mean Anonmoly304.5588
Mean Motion1.00269853
Decay Rate-2.62E-06
L11 44048U 19009A 19080.94563346 -.00000262 00000-0 00000-0 0 9998
L22 44048 0.0476 281.8186 0001615 79.0524 304.5588 1.00269853 257

Live tracking and technical data element details for NUSANTARA SATU (NORAD 44048). NUSANTARA SATU can be tracked NOW for your location showing map with azimuth and elevation plus other details from your city location.

Track the satellite on the map from your city or location and see movement details for azimuth, elevation, latitude, longitude, range, height, and movement on the map or in text.







IsCatalogInMostPopularTable: catalog: 44048, numindb: 19
Update: records affected: 1



GetName: 44048 NUSANTARA SATU

Hit Count: updated at: Sat, 23 Mar 2019 00:07:30 GMT